GW0309 Weather Reports


Display with metric or nautical units.
time (UTC)temp
F
wind
direction
speed
MPH
gust
MPH
rain 1hr
in
rain 24hr
in
rain mn
in
humidity
%
barometer
mb
20260505090124 0 139 1.0 1.0 0.00 0.00 0.00 1051.1
20260505085621 0 179 2.0 5.0 0.00 0.00 0.00 1051.1
20260505085120 0 178 3.0 6.0 0.00 0.00 0.00 1051.1
20260505084617 0 195 4.0 8.0 0.00 0.00 0.00 1051.3
20260505084116 0 175 3.0 5.0 0.00 0.00 0.00 1051.4
20260505083613 0 126 4.0 5.0 0.00 0.00 0.00 1051.8
20260505083109 0 131 4.0 5.0 0.00 0.00 0.00 1052.0
20260505082605 0 167 1.0 3.0 0.00 0.00 0.00 1052.1
20260505082102 0 154 1.0 2.0 0.00 0.00 0.00 1052.2
20260505081558 0 141 1.0 2.0 0.00 0.00 0.00 1052.0
20260505081055 0 159 1.0 3.0 0.00 0.00 0.00 1052.1
20260505080551 0 156 2.0 2.0 0.00 0.00 0.00 1051.9
20260505080049 0 160 2.0 5.0 0.00 0.00 0.00 1051.8
20260505075544 0 142 1.0 3.0 0.00 0.00 0.00 1052.2
20260505075041 0 159 2.0 3.0 0.00 0.00 0.00 1052.1
20260505074538 0 125 2.0 2.0 0.00 0.00 0.00 1052.3
20260505074035 0 158 2.0 2.0 0.00 0.00 0.00 1052.3
20260505073533 0 166 2.0 3.0 0.00 0.00 0.00 1052.5
20260505073032 0 158 1.0 2.0 0.00 0.00 0.00 1052.5
20260505072526 0 132 1.0 2.0 0.00 0.00 0.00 1052.8
20260505072023 0 142 1.0 1.0 0.00 0.00 0.00 1053.0
20260505071518 0 145 0.0 1.0 0.00 0.00 0.00 1053.1
20260505071017 0 130 0.0 1.0 0.00 0.00 0.00 1053.1
20260505070514 0 134 1.0 1.0 0.00 0.00 0.00 1053.1
20260505070010 0 130 0.0 0.0 0.00 0.00 0.00 1053.3
20260505065506 0 130 0.0 1.0 0.00 0.00 0.00 1053.3
20260505065002 0 125 0.0 0.0 0.00 0.00 0.00 1053.4
20260505064459 0 127 0.0 1.0 0.00 0.00 0.00 1053.0
20260505063958 0 131 0.0 1.0 0.00 0.00 0.00 1052.9
20260505063454 0 128 0.0 1.0 0.00 0.00 0.00 1053.0
20260505062950 0 138 2.0 2.0 0.00 0.00 0.00 1052.9
20260505062448 0 135 1.0 7.0 0.00 0.00 0.00 1052.6
20260505061944 0 149 0.0 2.0 0.00 0.00 0.00 1052.5
20260505061443 0 144 0.0 2.0 0.00 0.00 0.00 1051.9
20260505060940 0 147 1.0 2.0 0.00 0.00 0.00 1052.0
20260505060437 0 148 1.0 2.0 0.00 0.00 0.00 1052.0
20260505055933 0 154 1.0 3.0 0.00 0.00 0.00 1051.8
20260505055429 0 168 2.0 6.0 0.00 0.00 0.00 1051.9
20260505054926 0 157 2.0 2.0 0.00 0.00 0.00 1052.2
20260505054423 0 150 1.0 2.0 0.00 0.00 0.00 1052.8
20260505053921 0 150 1.0 1.0 0.00 0.00 0.00 1052.5
20260505053418 0 151 1.0 2.0 0.00 0.00 0.00 1052.5
20260505052915 0 143 1.0 2.0 0.00 0.00 0.00 1052.2
20260505052412 0 134 1.0 2.0 0.00 0.00 0.00 1052.5
20260505051909 0 141 1.0 2.0 0.00 0.00 0.00 1052.3
20260505051406 0 140 1.0 2.0 0.00 0.00 0.00 1052.7
20260505050904 0 138 0.0 1.0 0.00 0.00 0.00 1052.8
20260505050402 0 135 1.0 1.0 0.00 0.00 0.00 1052.7
20260505041330 0 133 1.0 2.0 0.00 0.00 0.00 1053.1
20260505040827 0 149 1.0 1.0 0.00 0.00 0.00 1053.2
20260505040325 0 164 3.0 3.0 0.00 0.00 0.00 1053.1
20260505035821 0 192 3.0 6.0 0.00 0.00 0.00 1053.1
20260505035317 0 139 0.0 2.0 0.00 0.00 0.00 1053.1
20260505034814 0 156 3.0 5.0 0.00 0.00 0.00 1053.3
20260505034311 0 137 0.0 3.0 0.00 0.00 0.00 1052.8
20260505033808 0 157 1.0 3.0 0.00 0.00 0.00 1053.0
20260505033305 0 143 1.0 3.0 0.00 0.00 0.00 1053.2
20260505032803 0 147 2.0 5.0 0.00 0.00 0.00 1053.2
20260505032259 0 170 2.0 2.0 0.00 0.00 0.00 1053.2
20260505031757 0 173 5.0 6.0 0.00 0.00 0.00 1053.3
20260505031253 0 179 2.0 5.0 0.00 0.00 0.00 1053.4
20260505030750 0 152 1.0 3.0 0.00 0.00 0.00 1053.5
20260505030246 0 143 1.0 2.0 0.00 0.00 0.00 1053.5
20260505025741 0 153 2.0 5.0 0.00 0.00 0.00 1053.2
20260505025240 0 165 2.0 2.0 0.00 0.00 0.00 1053.4
20260505024738 0 139 1.0 1.0 0.00 0.00 0.00 1053.1
20260505024235 0 164 0.0 2.0 0.00 0.00 0.00 1053.0
20260505023732 0 141 1.0 2.0 0.00 0.00 0.00 1053.0
20260505023229 0 161 2.0 2.0 0.00 0.00 0.00 1052.6
20260505022726 0 135 1.0 3.0 0.00 0.00 0.00 1052.7
20260505022223 0 144 1.0 3.0 0.00 0.00 0.00 1052.8
20260505021720 0 153 1.0 2.0 0.00 0.00 0.00 1052.6
20260505021217 0 141 1.0 2.0 0.00 0.00 0.00 1052.7
20260505020712 0 137 1.0 3.0 0.00 0.00 0.00 1052.6
20260505020208 0 180 1.0 2.0 0.00 0.00 0.00 1052.5
20260505015706 0 132 1.0 2.0 0.00 0.00 0.00 1052.3
20260505015202 0 139 1.0 5.0 0.00 0.00 0.00 1052.2
20260505014659 0 138 1.0 6.0 0.00 0.00 0.00 1052.0
20260505014156 0 147 1.0 5.0 0.00 0.00 0.00 1052.1
20260505013654 0 151 1.0 2.0 0.00 0.00 0.00 1051.8
20260505013151 0 144 0.0 2.0 0.00 0.00 0.00 1052.0
20260505012649 0 133 1.0 2.0 0.00 0.00 0.00 1051.7
20260505012146 0 131 2.0 2.0 0.00 0.00 0.00 1051.8
20260505011641 0 183 1.0 2.0 0.00 0.00 0.00 1051.7
20260505011139 0 159 1.0 3.0 0.00 0.00 0.00 1051.7
20260505010633 0 145 2.0 3.0 0.00 0.00 0.00 1051.3
20260505010131 0 194 1.0 6.0 0.00 0.00 0.00 1051.6
20260505005627 0 136 1.0 3.0 0.00 0.00 0.00 1051.3
20260505005124 0 138 1.0 2.0 0.00 0.00 0.00 1051.5
20260505004621 0 152 2.0 2.0 0.00 0.00 0.00 1051.4
20260505004117 0 163 2.0 3.0 0.00 0.00 0.00 1051.3
20260505003615 0 121 2.0 5.0 0.00 0.00 0.00 1051.3
20260505003113 0 154 1.0 3.0 0.00 0.00 0.00 1051.2
20260505002608 0 136 2.0 5.0 0.00 0.00 0.00 1051.2
20260505002106 0 120 1.0 2.0 0.00 0.00 0.00 1051.2
20260505001603 0 148 1.0 2.0 0.00 0.00 0.00 1051.2
20260505001101 0 149 2.0 2.0 0.00 0.00 0.00 1051.4
20260505000557 0 169 1.0 5.0 0.00 0.00 0.00 1051.5
20260505000055 0 147 1.0 3.0 0.00 0.00 0.00 1051.5
20260504235552 0 196 2.0 3.0 0.00 0.00 0.00 1051.6
20260504235048 0 143 2.0 6.0 0.00 0.00 0.00 1051.6
20260504234545 0 186 2.0 9.0 0.00 0.00 0.00 1051.3
20260504234042 0 168 2.0 3.0 0.00 0.00 0.00 1051.4
20260504233537 0 157 1.0 3.0 0.00 0.00 0.00 1051.4
20260504233035 0 137 1.0 6.0 0.00 0.00 0.00 1051.1
20260504232532 0 173 2.0 3.0 0.00 0.00 0.00 1051.4
20260504232030 0 109 2.0 3.0 0.00 0.00 0.00 1051.5
20260504231526 0 157 1.0 8.0 0.00 0.00 0.00 1051.5
20260504231022 0 180 2.0 3.0 0.00 0.00 0.00 1051.4
20260504230518 0 216 3.0 3.0 0.00 0.00 0.00 1051.7
20260504230018 0 178 1.0 6.0 0.00 0.00 0.00 1051.8
20260504225514 0 145 2.0 3.0 0.00 0.00 0.00 1051.7
20260504225011 0 137 2.0 5.0 0.00 0.00 0.00 1051.6
20260504224508 0 167 1.0 7.0 0.00 0.00 0.00 1051.7
20260504224005 0 151 3.0 6.0 0.00 0.00 0.00 1051.7
20260504223501 0 176 3.0 10.0 0.00 0.00 0.00 1051.6
20260504222956 0 136 2.0 5.0 0.00 0.00 0.00 1051.7
20260504222454 0 149 1.0 5.0 0.00 0.00 0.00 1051.7
20260504221952 0 211 2.0 3.0 0.00 0.00 0.00 1051.7
20260504221449 0 183 3.0 16.0 0.00 0.00 0.00 1051.9
20260504220941 0 161 3.0 5.0 0.00 0.00 0.00 1051.4
20260504220437 0 143 3.0 6.0 0.00 0.00 0.00 1051.6
20260504215934 0 146 1.0 5.0 0.00 0.00 0.00 1051.6
20260504215431 0 173 3.0 5.0 0.00 0.00 0.00 1051.6
20260504214928 0 165 1.0 16.0 0.00 0.00 0.00 1051.7
20260504214424 0 231 4.0 5.0 0.00 0.00 0.00 1051.9
20260504213921 0 175 3.0 5.0 0.00 0.00 0.00 1051.8
20260504213416 0 191 2.0 8.0 0.00 0.00 0.00 1051.8
20260504212914 0 292 5.0 8.0 0.00 0.00 0.00 1051.6
20260504212409 0 178 3.0 5.0 0.00 0.00 0.00 1051.8
20260504211908 0 144 3.0 7.0 0.00 0.00 0.00 1051.8
20260504211404 0 239 3.0 3.0 0.00 0.00 0.00 1051.7
20260504210901 0 165 3.0 6.0 0.00 0.00 0.00 1052.0
20260504210358 0 212 3.0 9.0 0.00 0.00 0.00 1051.9
20260504205855 0 117 5.0 7.0 0.00 0.00 0.00 1051.9
20260504205353 0 205 4.0 6.0 0.00 0.00 0.00 1051.9
20260504204850 0 129 4.0 6.0 0.00 0.00 0.00 1052.1
20260504204349 0 167 3.0 6.0 0.00 0.00 0.00 1052.0
20260504203848 0 255 5.0 10.0 0.00 0.00 0.00 1052.1
20260504203344 0 143 3.0 7.0 0.00 0.00 0.00 1052.2
20260504202840 0 156 2.0 7.0 0.00 0.00 0.00 1052.5
20260504202337 0 176 3.0 8.0 0.00 0.00 0.00 1052.2
20260504201834 0 173 7.0 11.0 0.00 0.00 0.00 1052.0
20260504201331 0 118 2.0 5.0 0.00 0.00 0.00 1052.2
20260504200829 0 224 5.0 10.0 0.00 0.00 0.00 1052.5
20260504200325 0 181 2.0 7.0 0.00 0.00 0.00 1052.6
20260504195822 0 231 2.0 3.0 0.00 0.00 0.00 1052.5
20260504195317 0 200 3.0 8.0 0.00 0.00 0.00 1052.7
20260504194815 0 296 4.0 5.0 0.00 0.00 0.00 1052.7
20260504194311 0 190 2.0 10.0 0.00 0.00 0.00 1052.6
20260504193807 0 165 2.0 5.0 0.00 0.00 0.00 1052.7
20260504193304 0 178 3.0 14.0 0.00 0.00 0.00 1052.9
20260504192803 0 188 2.0 6.0 0.00 0.00 0.00 1052.9
20260504192300 0 121 3.0 6.0 0.00 0.00 0.00 1053.0
20260504191759 0 159 2.0 3.0 0.00 0.00 0.00 1053.0
20260504191255 0 178 3.0 6.0 0.00 0.00 0.00 1053.2
20260504190751 0 123 2.0 5.0 0.00 0.00 0.00 1053.4
20260504190248 0 137 2.0 6.0 0.00 0.00 0.00 1053.3
20260504185744 0 158 2.0 3.0 0.00 0.00 0.00 1053.1
20260504185241 0 200 2.0 3.0 0.00 0.00 0.00 1053.4
20260504184737 0 203 5.0 9.0 0.00 0.00 0.00 1053.5
20260504184233 0 114 2.0 5.0 0.00 0.00 0.00 1053.5
20260504183729 0 177 2.0 5.0 0.00 0.00 0.00 1053.4
20260504183226 0 182 2.0 5.0 0.00 0.00 0.00 1053.3
20260504182724 0 219 3.0 5.0 0.00 0.00 0.00 1053.6
20260504182221 0 207 5.0 8.0 0.00 0.00 0.00 1053.6
20260504181718 0 238 5.0 8.0 0.00 0.00 0.00 1053.6
20260504181215 0 257 3.0 6.0 0.00 0.00 0.00 1053.8
20260504180714 0 245 4.0 8.0 0.00 0.00 0.00 1053.7
20260504180213 0 198 4.0 11.0 0.00 0.00 0.00 1053.5
20260504175710 0 201 7.0 9.0 0.00 0.00 0.00 1053.4
20260504175207 0 262 5.0 7.0 0.00 0.00 0.00 1053.6
20260504174705 0 271 6.0 10.0 0.00 0.00 0.00 1053.7
20260504174203 0 207 3.0 9.0 0.00 0.00 0.00 1053.4
20260504173658 0 199 3.0 7.0 0.00 0.00 0.00 1053.3
20260504173156 0 170 3.0 6.0 0.00 0.00 0.00 1053.6
20260504172652 0 38 5.0 7.0 0.00 0.00 0.00 1053.5
20260504172149 0 115 3.0 9.0 0.00 0.00 0.00 1053.5
20260504171645 0 178 6.0 15.0 0.00 0.00 0.00 1053.4
20260504171143 0 214 5.0 10.0 0.00 0.00 0.00 1053.5
20260504170639 0 205 3.0 6.0 0.00 0.00 0.00 1053.2
20260504170137 0 215 3.0 9.0 0.00 0.00 0.00 1053.3
20260504151022 0 134 2.0 6.0 0.00 0.00 0.00 1054.3
20260504150519 0 250 3.0 5.0 0.00 0.00 0.00 1054.2
20260504140945 0 209 3.0 5.0 0.00 0.00 0.00 1054.9
20260504140441 0 218 2.0 6.0 0.00 0.00 0.00 1055.0
20260504130406 0 155 0.0 3.0 0.00 0.00 0.00 1055.3
20260504110254 0 196 3.0 3.0 0.00 0.00 0.00 1055.5
20260504100216 0 196 2.0 3.0 0.00 0.00 0.00 1055.9